Weather History for KFSM - June, 2014

Change the Weather History Date:

Monday, June 23, 2014

  Actual Average Record
Temperature  
Mean Temperature 78 °F 80 °F  
Max Temperature 85 °F 90 °F 102 °F (1988)
Min Temperature 71 °F 69 °F 55 °F (1902)
Cooling Degree Days 13 15  
Month to date cooling degree days 325 278  
Year to date cooling degree days 603 522  
Since 1 June cooling degree days 325 278  
Growing Degree Days 28 (Base 50)    
Moisture  
Dew Point 70 °F    
Average Humidity 79    
Maximum Humidity 93    
Minimum Humidity 65    
Precipitation  
Precipitation 0.10 in 0.14 in 1.58 in (1948)
Month to date precipitation 3.79 3.37  
Year to date precipitation 18.53 22.56  
Sea Level Pressure  
Sea Level Pressure 29.85 in    
Wind  
Wind Speed 6 mph (NNE)    
Max Wind Speed 25 mph    
Max Gust Speed 30 mph    
Visibility 10 miles    
Events Rain    
T = Trace of Precipitation, MM = Missing Value Source: NWS Daily Summary

Daily Weather History Graph

Daily Weather History Graph

Search for Another Location

Airport or City:

Trip Planner

Search our weather history database for the weather conditions in past years. The results will help you decide how hot, cold, wet, or windy it might be!

Date:

Astronomy

Jun. 23, 2014 Rise Set
Actual Time 6:03 AM CDT 8:35 PM CDT
Civil Twilight 5:33 AM CDT 9:05 PM CDT
Nautical Twilight 4:56 AM CDT 9:42 PM CDT
Astronomical Twilight 4:15 AM CDT 10:23 PM CDT
Moon 3:24 AM CDT (6/23) 5:22 PM CDT (6/23)
Length of Visible Light 15h 32m
Length of Day
14h 32m
Waning Crescent, 13% of the Moon is Illuminated
Jun 23
Waning Crescent
Jun 27
New
Jul 5
First Quarter
Jul 12
Full
Jul 18
Last Quarter

Hourly Weather History & Observations

Time (CDT) Temp. Heat Index Dew Point Humidity Pressure Visibility Wind Dir Wind Speed Gust Speed Precip Events Conditions
12:53 AM 73.4 °F - 69.8 °F 88% 29.87 in 10.0 mi Calm Calm - N/A   Clear
1:53 AM 72.0 °F - 70.0 °F 93% 29.86 in 10.0 mi Calm Calm - N/A   Clear
2:53 AM 73.0 °F - 70.0 °F 90% 29.86 in 10.0 mi Calm Calm - N/A   Clear
3:53 AM 72.0 °F - 70.0 °F 93% 29.85 in 10.0 mi East 3.5 mph - N/A   Mostly Cloudy
4:53 AM 72.0 °F - 70.0 °F 93% 29.86 in 10.0 mi Calm Calm - 0.02 in   Overcast
5:53 AM 72.0 °F - 71.1 °F 97% 29.84 in 8.0 mi ENE 3.5 mph - 0.00 in Rain Light Rain
6:02 AM 73.0 °F - 71.1 °F 93% 29.86 in 9.0 mi NE 4.6 mph - 0.00 in Rain Light Rain
6:14 AM 73.0 °F - 71.1 °F 93% 29.86 in 10.0 mi North 9.2 mph - 0.00 in   Overcast
6:53 AM 73.0 °F - 70.0 °F 90% 29.86 in 10.0 mi NE 6.9 mph - 0.00 in   Overcast
7:46 AM 73.9 °F - 71.1 °F 91% 29.88 in 10.0 mi ENE 6.9 mph - N/A   Overcast
7:53 AM 73.9 °F - 71.1 °F 91% 29.87 in 10.0 mi ENE 5.8 mph - N/A   Overcast
8:53 AM 75.0 °F - 71.1 °F 87% 29.87 in 10.0 mi ESE 3.5 mph - 0.01 in   Overcast
9:53 AM 77.0 °F - 73.0 °F 88% 29.86 in 10.0 mi ENE 4.6 mph - N/A   Overcast
10:53 AM 78.1 °F - 73.9 °F 87% 29.85 in 10.0 mi East 6.9 mph - N/A   Scattered Clouds
11:53 AM 80.1 °F 84.2 °F 73.0 °F 79% 29.82 in 9.0 mi East 4.6 mph - 0.00 in Rain Light Rain
12:53 PM 82.9 °F 87.0 °F 70.0 °F 65% 29.83 in 10.0 mi SE 6.9 mph - 0.00 in   Clear
1:53 PM 78.1 °F - 72.0 °F 81% 29.84 in 8.0 mi South 5.8 mph - 0.03 in Rain Light Rain
2:53 PM 80.1 °F 84.5 °F 73.9 °F 81% 29.83 in 10.0 mi SSW 5.8 mph - 0.04 in   Mostly Cloudy
3:53 PM 82.0 °F 86.7 °F 72.0 °F 71% 29.81 in 10.0 mi SSW 6.9 mph - N/A   Scattered Clouds
4:53 PM 82.0 °F 85.9 °F 70.0 °F 67% 29.81 in 10.0 mi WNW 16.1 mph - N/A   Mostly Cloudy
5:53 PM 80.1 °F 83.2 °F 70.0 °F 71% 29.81 in 10.0 mi NNW 12.7 mph - N/A   Mostly Cloudy
6:53 PM 79.0 °F - 69.1 °F 72% 29.83 in 10.0 mi NW 10.4 mph - N/A   Mostly Cloudy
7:53 PM 78.1 °F - 68.0 °F 71% 29.85 in 10.0 mi NNW 11.5 mph - N/A   Overcast
8:53 PM 75.9 °F - 66.9 °F 74% 29.87 in 10.0 mi NW 10.4 mph - N/A   Scattered Clouds
9:53 PM 75.0 °F - 66.9 °F 76% 29.91 in 10.0 mi NW 8.1 mph - N/A   Overcast
10:53 PM 73.0 °F - 68.0 °F 84% 29.92 in 10.0 mi WNW 6.9 mph - N/A   Partly Cloudy
11:53 PM 73.0 °F - 68.0 °F 84% 29.92 in 10.0 mi WNW 5.8 mph - N/A   Clear